Regional Weather Roundup
Issued by NWS Newport/Morehead, NC

Current Version | Previous Version | Graphics & Text | Print | Product List | Glossary On
Versions: 1 2 3 4 5 6 7 8 9 10 11 12 13 14 15 16 17 18 19 20 21 22 23 24 25 26 27 28 29 30 31 32 33 34 35 36 37 38 39 40 41 42 43 44 45 46 47 48 49 50
888 ASUS42 KMHX 181325 RWRMHX WEATHER ROUNDUP FOR EASTERN NORTH CAROLINA NATIONAL WEATHER SERVICE NEWPORT/MOREHEAD CITY NC 900 AM EDT FRI AUG 18 2017 NOTE: "FAIR" INDICATES FEW OR NO CLOUDS BELOW 12,000 FEET WITH NO SIGNIFICANT WEATHER AND/OR OBSTRUCTIONS TO VISIBILITY NCZ015>017-031-032-045>047-102-103-181400- NORTH COAST CITY SKY/WX TMP DP RH WIND PRES REMARKS EDENTON CLOUDY 83 79 87 CALM 29.96R ELIZABETH CITY CLOUDY 84 81 90 S8 29.94S KITTY HAWK SUNNY 84 78 82 CALM 29.94F MANTEO SUNNY 83 79 87 SW8 29.96S $$ NCZ045>047-081-094-103-104-181400- CENTRAL COAST CITY SKY/WX TMP DP RH WIND PRES REMARKS FRISCO MOSUNNY 85 81 88 SW9 29.97S HX 100 $$ NCZ095-097-098-100-101-181400- SOUTHERN COAST CITY SKY/WX TMP DP RH WIND PRES REMARKS BEAUFORT PTSUNNY 86 83 90 S12 29.96S HX 106 CEDAR ISLAND NOT AVBL JACKSONVILLE MOSUNNY 85 82 91 W8 29.95R HX 102 PINEY ISLAND SUNNY N/A N/A N/A SW10 29.95F WILMINGTON MOSUNNY 85 80 85 SW10 29.96R $$ NCZ011>013-027>030-043-044-078>080-089-090>093-098-181400- COASTAL PLAIN CITY SKY/WX TMP DP RH WIND PRES REMARKS AHOSKIE N/A 78 78 97 CALM 29.94S CLINTON MOSUNNY 81 80 96 SW6 29.96S ELIZABETHTOWN NOT AVBL GOLDSBORO PTSUNNY 77 77 100 S3 29.92S GREENVILLE PTSUNNY 82 79 89 SW8 29.97S HAVELOCK NOT AVBL KENANSVILLE MOSUNNY 82 79 89 W8 29.96R KINSTON PTSUNNY 82 79 89 SW6 29.96S NEW BERN MOSUNNY 85 81 88 SW5 29.96S HX 100 RICHLANDS MOSUNNY 85 80 85 SW7 29.96S ROCKY MOUNT CLOUDY 79 77 94 SW7 29.95S FOG WASHINGTON PTSUNNY 83 79 88 SW6 29.95S WHITEVILLE SUNNY 83 78 85 SW3 29.96S $$ AMZ130-135-150-152-154-156-158-170-250-252-270-ANZ085-086-088-633-658-670-181400- MARINE OBSERVATIONS STATION/POSITION TIME TEMP WIND PRES WAVE SWELL AIR SEA DIR/SP/G HT/PER HT/PER (UTC) (F) (DEG/KT/KT) (MB) (FT/S) (FT/S) CHESAPEAKE LIGHT NOT AVBL 64 E VA BEACH 1250 79 77 180/ 10/ 10 1015.0 3/ 8 2/ 8 DUCK 1300 83 72 210/ 11/ 14 1013.7 2 E DUCK 1300 78 N/A 2/ 8 OREGON INLET 1300 83 83 180/ 10/ 11 1014.3 13E OREGON INLT 1248 80 N/A 2/ 8 2/ 8 HATTERAS CG 1300 84 84 220/ 7/ 12 1014.6 DIAMOND BUOY 1250 83 86 210/ 14/ 16 1014.7 2/ 8 2/ 8 CAPE LOOKOUT 1300 84 200/ 8/ 11 1014.4 BEAUFORT LAB 1300 85 81 210/ 6/ 10 1013.9 30 SE NEW RVR IN 1308 84 83 230/ 10/ 12 1015.0 30 SE NEW RVR IN 1313 83 N/A 3/ 5 27 SE WRIGHTSVLE 1308 84 83 210/ 10/ 14 1014.8 5 SE WRIGHTSVLE 1308 84 83 240/ 10/ 14 1014.4 225 S CAPE HAT 1250 83 84 220/ 14/ 16 1016.7 2/ 6 2/ 8 41 SE CHARLESTON 1300 84 85 230/ 12/ 14 1015.1 $$

USA.gov is the U.S. government's official web portal to all federal, state and local government web resources and services.